Regional Weather Roundup
Issued by NWS Cleveland, OH

Home | Current Version | Previous Version | Text Only | Print | Product List | Glossary Off
Versions: 1 2 3 4 5 6 7 8 9 10 11 12 13 14 15 16 17 18 19 20 21 22 23 24 25 26 27 28 29 30 31 32 33 34 35 36 37 38 39 40 41 42 43 44 45 46 47 48 49 50

000
ASUS41 KCLE 270412
RWRCLE
OHIO REGIONAL WEATHER ROUNDUP
NATIONAL WEATHER SERVICE WILMINGTON, OH
1200 AM EDT SAT MAY 27 2017

NOTE: "FAIR" INDICATES FEW OR NO CLOUDS BELOW 12,000 FEET WITH NO
SIGNIFICANT WEATHER AND/OR OBSTRUCTIONS TO VISIBILITY.

OHZ001>008-015>018-024>027-034-035-043-044-270500-
   NORTHWEST OHIO

CITY           SKY/WX    TMP DP  RH WIND       PRES   REMARKS
DEFIANCE       RAIN      59  56  89 E5        29.89R FOG
FINDLAY        CLOUDY    64  58  80 E3        29.86R
TOLEDO EXPRESS LGT RAIN  62  60  93 CALM      29.88R
TOLEDO EXEC    CLOUDY    62  58  86 E5        29.88R
LIMA           LGT RAIN  62  60  93 CALM      29.86R
$$

OHZ009>014-019>023-028>033-038-089-270500-
   NORTHEAST OHIO

CITY           SKY/WX    TMP DP  RH WIND       PRES   REMARKS
CLE-HOPKINS    FAIR      59  53  80 S6        29.91F
CLE-LAKEFRONT  FAIR      60  51  72 S5        29.89S
CUY CO. ARPT   NOT AVBL
LORAIN-ELYRIA  FAIR      58  51  78 CALM      29.90S
ASHTABULA      FAIR      52  52 100 CALM      29.92F
AKRON-CANTON   FAIR      59  52  77 SE5       29.91F
WOOSTER        FAIR      57  54  89 CALM      29.91S
MANSFIELD      FAIR      60  57  89 SE7       29.89F
YOUNGSTOWN     MOCLDY    51  49  92 E5        29.91F
$$

OHZ042-051>053-060>062-070>072-077>081-270500-
  SOUTHWEST OHIO

CITY           SKY/WX    TMP DP  RH WIND       PRES   REMARKS
CINC-COVINGTON FAIR      71  63  75 S6        29.86F
CINC-LUNKEN    CLOUDY    72  64  76 S6        29.87S
HAMILTON       CLOUDY    75  63  66 VRB3      29.86F
DAYTON         CLOUDY    65  63  93 S17G29    29.85F
WRIGHT-PAT AFB TSTM      64  64 100 SE15      29.85F
DAYTON GENERAL MOCLDY    63  60  90 E6        29.85F
WILMINGTON     CLOUDY    65  64  97 S5        29.88R
$$

OHZ036-037-039>041-045>050-054>059-063>069-073>076-082>088-270500-
  CENTRAL AND SOUTHEAST OHIO

CITY           SKY/WX    TMP DP  RH WIND       PRES   REMARKS
COLUMBUS       TSTM      66  60  81 SW3       29.91R
OSU AIRPORT    LGT RAIN  63  62  97 W3        29.91R
BOLTON FIELD   CLOUDY    64  62  93 W5        29.92R
RICKENBACK AFB TSTM      65  60  83 CALM      29.90R
NEWARK         MOCLDY    61  57  87 CALM      29.90R
MARION         LGT RAIN  63  57  81 SE12      29.86F
LANCASTER      CLOUDY    66  59  78 S3        29.91R
ZANESVILLE     FAIR      62  56  80 CALM      29.91S
NEW PHILLY     FAIR      58  57  97 CALM      29.92S
$$



USA.gov is the U.S. government's official web portal to all federal, state and local government web resources and services.